Theta_e
347 350 354 358 358 358 358 357 357 357 355 355 355 355 355 354 354 355 354 354 354 354 354 354 353 353 352 351 351 352 352 352 352 351 351 351 351 351 350 348 348 347 347 348 348 348 348 347 347 346 346 346 346 347 348 348 347 346 345 345 345 344 343 343 343 344 344 344 344 344 345 345 344 343 343 342 341 342 342 341 341 338 338 339 341
346 351 353 356 357 357 358 357 357 356 355 356 355 355 355 354 355 354 354 354 354 354 354 354 354 353 352 352 353 352 352 352 352 351 351 351 351 351 350 350 350 348 347 347 346 347 347 347 346 345 345 346 346 346 346 346 346 345 345 345 343 343 343 343 343 344 344 344 343 343 342 342 342 342 342 341 341 340 340 341 341 336 334 339 340
350 351 353 356 358 358 357 357 356 356 355 355 354 354 355 354 354 354 354 354 354 354 354 354 354 353 353 352 352 352 352 352 352 352 352 351 350 350 350 349 348 347 348 348 347 347 347 346 345 346 346 346 346 346 345 345 345 345 345 345 344 344 343 344 343 343 343 343 343 342 342 341 341 342 342 342 342 341 340 340 340 340 336 338 337
349 351 353 356 358 357 356 356 356 356 355 355 354 354 354 354 354 354 354 354 354 354 354 354 354 354 354 353 353 353 352 352 352 351 350 349 349 349 349 349 350 350 349 349 348 348 348 346 346 345 346 346 346 346 345 345 345 344 344 345 344 343 343 343 344 343 343 342 342 340 339 333 337 341 340 340 340 340 340 339 339 339 339 339 339
350 352 352 354 355 355 355 355 355 355 355 355 354 354 354 354 354 354 354 354 354 353 354 353 353 353 353 353 354 353 352 352 351 351 350 350 350 350 350 350 349 349 348 348 346 347 346 346 346 346 346 346 345 345 345 344 345 344 344 344 344 343 343 342 342 341 341 341 341 338 330 331 333 340 340 340 340 339 339 340 339 339 340 340 339
350 351 353 354 354 354 354 355 354 354 354 355 354 354 354 354 354 354 354 353 353 353 353 353 353 353 353 353 353 353 352 352 351 350 351 350 350 349 350 350 350 350 349 348 347 347 346 346 346 346 346 346 346 345 345 345 345 344 344 343 343 342 342 342 342 341 341 340 339 332 330 331 332 336 341 341 341 338 337 338 338 337 336 337 338
348 351 353 353 352 352 353 354 353 354 354 354 354 354 353 354 354 354 353 353 353 353 353 353 353 353 353 353 353 353 353 352 352 351 351 350 349 348 349 349 349 349 348 347 347 347 347 346 346 345 344 344 344 345 345 346 346 345 345 344 342 342 344 345 342 341 339 335 327 328 329 331 332 333 344 343 341 340 339 338 337 337 339 338 338
348 349 351 351 351 353 354 354 354 354 354 354 354 353 353 354 354 354 354 353 353 353 353 352 353 352 352 352 352 352 353 352 352 351 350 350 349 349 347 348 348 348 347 347 346 346 346 347 346 346 346 345 345 346 346 346 345 345 344 344 344 342 343 343 343 340 338 333 328 328 329 329 331 334 339 340 341 341 341 340 338 338 337 336 337
346 349 349 350 352 353 354 353 354 354 354 353 353 353 353 353 353 353 353 353 353 352 352 352 352 352 352 352 351 351 352 352 351 350 350 350 350 349 349 347 347 347 347 348 347 346 346 347 347 347 348 348 347 347 347 346 345 345 344 344 344 343 343 343 343 343 339 333 330 328 328 330 330 332 339 339 339 339 340 339 338 338 337 337 338
346 348 349 349 351 353 353 353 354 354 354 353 353 352 353 353 353 353 353 353 352 352 352 352 352 352 352 351 351 350 350 350 350 349 349 350 349 349 348 348 346 347 347 346 346 347 347 347 346 346 347 348 348 347 346 345 345 344 344 344 344 343 343 342 342 342 335 332 330 328 331 340 332 335 338 338 338 337 336 335 338 338 337 337 337
347 347 349 349 351 352 352 352 352 353 353 353 352 352 352 353 352 353 352 353 352 352 352 351 351 351 350 350 350 351 350 350 349 349 349 348 348 348 347 346 346 348 346 346 346 347 347 346 346 347 348 348 347 346 345 345 344 344 344 343 343 342 342 342 341 333 335 330 328 328 339 339 329 333 341 340 340 340 339 339 336 335 336 338 339
346 347 348 350 354 351 352 352 352 353 352 353 352 352 353 352 353 352 352 352 352 351 351 351 351 350 350 350 350 350 350 349 349 349 349 348 347 347 346 346 347 347 346 347 346 347 346 347 347 346 346 346 346 346 345 344 343 343 343 343 341 341 341 339 333 333 333 328 328 330 332 330 331 337 341 340 338 338 338 338 338 338 337 337 338
345 346 347 349 350 352 352 352 353 352 352 352 352 352 352 353 353 352 352 351 351 351 351 350 351 351 350 350 350 350 350 349 349 349 348 347 347 346 347 348 349 350 348 348 348 348 348 347 346 345 345 345 345 345 344 343 343 342 341 341 342 342 340 339 332 332 329 329 332 329 328 327 331 340 339 338 337 337 337 337 337 336 337 337 336
343 344 346 347 349 353 352 351 352 352 352 352 352 352 352 352 352 352 351 351 351 351 351 351 351 350 350 350 349 349 349 349 349 349 348 347 347 346 347 348 348 349 349 348 349 348 347 346 345 344 344 343 343 343 342 342 342 342 342 342 343 343 341 338 336 330 331 330 330 328 328 331 331 340 340 340 338 338 336 336 336 337 336 336 336
342 342 344 346 347 349 352 351 351 352 352 351 351 352 352 352 351 351 351 351 351 351 351 350 350 350 350 349 350 349 349 349 349 349 348 347 347 347 347 347 347 348 347 347 347 347 346 345 344 343 343 342 341 341 341 341 342 342 343 343 343 344 343 333 332 330 330 331 330 332 328 330 340 339 339 338 338 337 337 337 337 335 335 336 337
341 341 342 341 342 347 348 351 351 352 352 351 351 352 352 351 351 351 351 351 351 350 351 350 350 350 350 350 350 350 349 349 349 348 348 347 347 347 347 346 346 347 347 347 347 346 345 344 343 342 341 341 341 340 340 341 342 343 343 343 344 345 343 338 330 328 329 329 330 331 328 332 341 340 339 339 337 336 336 335 335 335 336 335 335
340 341 341 341 344 346 349 350 351 352 351 351 351 351 351 351 350 351 351 351 351 351 350 350 350 350 350 350 349 349 348 348 348 348 347 347 347 346 346 346 346 347 347 347 346 345 345 344 343 342 341 341 340 340 341 341 342 343 343 344 344 344 342 338 329 328 328 332 332 331 328 332 340 340 339 338 337 336 336 336 335 335 334 335 335
339 341 341 342 343 347 348 348 349 349 349 350 351 351 351 351 350 350 350 350 350 351 350 350 350 349 349 349 349 348 348 348 347 347 347 346 347 346 346 346 346 347 347 346 346 345 345 344 342 341 341 341 340 340 340 341 342 343 343 343 342 342 341 338 328 329 330 335 330 333 331 338 341 339 339 338 337 336 335 335 335 335 334 334 334
338 340 340 342 344 347 347 347 348 348 348 347 348 349 351 350 350 350 350 350 350 350 350 350 349 349 349 349 348 348 348 347 347 347 347 347 346 347 346 346 346 346 346 346 346 345 344 343 342 342 342 340 340 340 341 340 341 342 342 341 341 342 340 335 329 329 332 332 329 329 327 339 340 339 339 338 337 336 335 334 334 334 334 335 334
336 340 342 344 346 346 346 347 347 347 346 346 347 348 350 351 350 350 350 350 350 350 349 349 349 349 349 348 348 347 347 346 348 345 347 347 347 345 345 345 345 346 346 346 346 345 343 342 342 342 341 340 340 340 340 340 340 341 341 340 340 340 331 329 330 331 331 330 331 327 335 340 339 339 339 338 337 336 335 333 334 334 334 334 334
335 338 339 343 345 345 346 346 346 347 347 346 346 347 349 350 349 350 350 350 349 349 349 349 348 348 347 348 345 341 339 340 342 339 346 342 346 346 345 345 345 345 345 345 344 345 344 343 342 341 341 340 339 341 340 338 339 340 341 338 337 329 330 330 331 333 331 331 334 329 338 339 339 339 339 338 337 336 334 333 333 333 334 334 335
334 338 341 343 343 344 345 345 345 346 346 345 346 346 347 348 346 346 347 347 349 349 347 345 348 344 346 343 339 342 336 335 337 346 339 342 343 345 345 345 344 345 345 345 344 344 344 343 343 342 340 340 340 326 327 334 336 338 338 336 327 324 327 330 330 331 331 329 331 332 339 338 339 339 339 338 337 336 334 334 333 333 334 335 334
334 337 340 341 341 342 344 344 344 345 344 344 344 345 345 344 343 343 346 348 348 347 343 344 339 339 338 338 339 335 335 338 338 342 341 345 341 344 344 344 343 343 344 344 344 344 344 344 344 342 341 341 327 323 323 322 322 334 335 327 323 325 326 328 329 330 331 330 328 336 339 338 339 339 338 338 337 335 334 334 333 333 333 333 333
334 336 338 340 340 340 342 343 343 344 343 343 344 343 343 342 340 341 342 342 341 341 339 338 337 336 337 335 334 336 335 335 346 347 345 341 340 344 344 344 342 343 343 343 342 343 344 344 343 343 339 333 325 326 325 322 323 321 323 324 323 324 325 329 329 330 330 334 329 337 339 339 339 338 338 338 337 335 335 334 332 332 332 332 333
335 337 338 338 339 340 341 341 342 342 342 343 343 342 342 341 339 339 340 340 339 336 336 335 336 336 336 336 334 336 332 331 332 335 336 334 333 334 336 336 336 336 343 334 334 337 337 333 333 332 328 328 327 324 324 325 324 323 323 324 324 323 325 330 329 328 329 332 331 338 340 340 339 338 338 338 337 336 335 334 332 332 332 332 332
336 336 336 338 338 340 340 341 341 340 340 341 341 343 343 340 340 339 338 340 337 335 334 334 334 335 335 336 336 332 331 330 330 331 333 332 332 333 332 332 333 334 335 333 332 331 331 330 329 328 327 325 326 324 322 325 324 322 323 324 323 324 324 327 329 329 330 330 332 339 341 341 340 339 338 337 337 336 335 334 332 332 332 332 332
335 335 337 337 339 339 340 341 340 339 339 341 341 341 340 340 339 339 339 338 335 333 332 331 332 333 334 336 333 330 330 329 330 329 329 330 331 330 330 331 331 332 333 333 330 330 330 329 329 328 326 326 326 325 323 324 322 323 324 325 323 323 323 328 329 330 330 330 334 341 341 341 341 339 338 337 336 336 335 334 333 332 331 331 331
335 335 336 337 338 339 341 341 340 339 338 339 339 339 338 337 338 342 338 341 336 332 331 330 332 333 335 334 335 330 330 328 328 328 328 328 329 329 327 329 330 330 331 332 330 329 328 327 327 328 329 328 328 327 325 326 325 323 324 324 323 321 323 327 329 331 331 331 333 340 341 341 340 340 338 337 336 336 334 333 333 333 332 331 330
333 335 336 337 339 340 341 340 341 340 339 339 339 338 337 337 338 339 336 342 332 332 331 332 332 333 334 335 336 330 329 328 327 328 327 327 327 327 327 327 328 329 328 329 329 329 328 327 327 328 327 327 326 326 327 328 325 324 323 324 324 322 323 327 328 330 331 332 333 338 341 341 339 340 339 337 336 336 334 333 333 333 332 331 331
332 334 336 337 339 341 341 340 341 341 340 340 338 337 337 336 337 337 336 341 333 332 331 331 330 332 331 332 334 331 330 329 328 327 328 326 326 326 327 325 327 328 328 328 328 328 329 328 327 327 328 326 327 327 327 324 323 323 323 323 322 323 325 327 327 329 330 331 333 335 341 340 338 339 339 337 337 336 335 334 333 333 332 332 331
329 332 333 335 338 340 340 341 342 343 340 339 338 337 338 337 337 337 336 336 334 334 332 331 330 330 330 332 332 332 331 329 329 328 327 327 325 324 325 325 327 329 327 326 327 327 327 328 327 326 325 325 326 324 324 322 321 323 324 324 322 323 326 326 328 329 331 332 332 333 337 340 339 339 339 338 338 337 335 335 334 333 333 333 332
326 328 330 330 332 339 340 341 341 342 340 339 340 337 337 337 338 336 335 334 335 331 330 331 334 331 331 330 331 331 332 328 328 327 328 327 326 325 325 324 326 329 332 330 328 327 326 327 328 327 325 324 323 321 322 321 321 321 322 322 322 324 325 327 328 329 330 331 331 332 332 335 339 339 338 337 337 339 336 336 336 334 333 333 332
327 327 329 330 331 334 338 340 341 340 338 338 338 337 336 338 336 334 334 335 333 331 330 330 331 331 330 330 329 330 329 328 327 329 332 327 327 325 324 324 325 329 331 332 332 327 327 327 326 327 322 319 319 318 323 321 322 324 325 326 325 323 327 327 327 329 328 329 329 329 329 330 331 338 337 338 337 337 338 337 336 336 334 333 333
325 326 326 328 331 333 338 338 339 338 336 336 336 335 335 335 332 332 335 332 330 330 331 329 332 330 330 328 328 329 328 328 328 327 328 327 327 326 325 324 326 328 329 330 328 326 327 326 325 324 326 318 316 318 318 320 322 323 325 326 325 324 324 327 326 327 327 328 328 329 329 329 329 330 332 338 338 337 337 338 337 336 336 335 333
325 324 325 327 329 331 336 337 337 336 337 335 335 333 332 334 331 330 330 329 329 328 328 329 328 327 329 328 327 329 328 328 327 326 326 326 326 325 325 326 326 326 329 329 329 328 327 326 323 322 318 318 319 321 318 321 322 324 324 324 325 325 324 325 327 327 327 327 329 330 330 331 329 329 331 330 337 337 336 337 338 337 336 336 334
325 324 325 326 327 328 336 335 335 333 332 333 332 332 332 330 329 332 327 327 327 328 328 329 328 327 328 326 327 328 327 329 329 326 325 325 325 325 324 324 326 326 326 325 325 325 324 323 322 320 318 321 323 322 321 322 322 323 323 323 323 324 322 323 324 327 327 327 328 329 330 330 330 329 333 329 331 333 336 336 337 337 338 336 336
324 323 324 324 324 329 335 333 332 331 330 331 330 329 328 327 327 327 326 324 324 324 326 326 328 328 326 326 326 329 327 329 328 327 325 325 324 324 326 327 327 325 326 324 324 326 325 323 321 323 319 320 322 323 322 322 322 322 322 322 322 322 321 321 322 323 326 325 325 328 329 330 332 337 333 331 331 329 334 336 337 336 336 337 337
324 324 325 325 325 329 330 329 328 328 328 329 329 327 326 326 325 325 328 323 322 323 325 327 327 325 325 324 326 328 327 326 328 326 324 327 326 326 327 327 325 324 325 325 326 325 323 323 322 323 323 323 320 321 320 321 324 323 320 321 321 320 320 319 321 325 320 322 324 326 328 329 330 332 333 333 332 330 329 332 336 337 337 334 334
325 325 325 326 326 326 326 328 325 324 325 326 324 321 320 321 322 323 322 322 322 322 324 324 322 324 322 324 326 326 326 324 327 327 324 326 325 326 327 327 325 324 324 323 324 324 325 322 322 322 324 324 322 321 322 320 320 320 321 322 321 322 320 320 320 319 319 321 325 328 328 327 329 330 330 331 331 331 330 328 328 329 331 335 335
324 324 325 324 324 324 323 322 322 322 321 320 318 317 319 321 321 320 320 320 318 322 317 320 319 321 324 324 326 324 325 325 324 325 324 325 325 325 325 327 325 325 321 322 322 322 322 322 321 322 321 322 324 325 322 321 318 319 320 318 320 322 322 320 319 319 320 321 324 326 324 325 327 328 330 331 331 331 331 330 330 330 331 333 335
323 323 323 323 323 322 321 319 319 320 319 316 316 317 318 317 316 317 316 314 317 316 316 315 316 318 322 324 324 323 322 324 325 324 322 328 324 323 325 324 323 325 324 323 323 324 324 323 322 320 318 316 321 324 323 319 318 317 315 315 318 323 326 321 320 320 320 320 324 326 325 324 324 326 328 329 329 330 330 330 330 330 330 331 332
322 323 323 322 321 320 320 319 318 317 316 316 317 317 317 319 318 315 313 314 315 316 314 313 316 318 317 319 321 321 321 321 324 321 322 324 323 321 323 324 325 322 323 323 321 327 325 322 320 319 318 316 320 325 322 318 313 312 311 311 311 314 319 319 322 323 325 323 323 326 325 325 325 326 326 329 328 329 329 330 329 330 330 331 331
322 323 323 322 320 319 319 318 316 315 314 316 316 316 314 316 316 313 315 312 312 313 313 316 317 315 314 315 316 315 316 318 321 323 321 323 322 322 324 324 324 326 324 321 322 323 323 321 320 319 319 321 322 324 320 315 314 318 314 311 308 308 313 315 317 322 323 324 324 325 326 326 326 327 326 324 322 324 328 329 329 329 330 331 331
322 322 322 321 320 320 319 317 316 315 315 318 318 315 317 315 315 314 313 312 312 316 313 313 314 315 315 315 316 313 315 315 316 321 322 321 321 321 320 320 321 324 322 321 321 321 320 322 322 319 318 319 320 319 321 319 315 314 311 310 309 308 306 308 311 317 324 325 323 325 326 327 327 328 327 327 327 324 323 326 327 328 328 329 330
321 323 322 321 322 320 319 318 316 315 318 320 316 317 316 314 314 314 315 314 314 311 312 312 312 317 314 314 314 314 315 315 315 317 321 320 318 319 319 319 319 321 320 320 321 320 318 318 321 321 319 319 319 320 323 322 319 320 315 312 307 306 306 309 311 316 321 325 325 327 327 326 325 325 326 325 325 325 326 327 325 325 325 327 328
322 323 324 323 321 320 320 318 317 317 318 316 316 317 316 314 313 312 310 309 308 309 308 309 310 311 312 312 312 313 314 313 312 314 317 318 318 318 316 319 319 321 320 317 318 319 319 320 322 324 322 321 322 321 321 323 320 321 317 314 312 310 311 314 311 308 316 320 323 325 325 325 324 324 323 323 324 324 325 326 326 326 326 326 327
322 324 324 323 322 321 320 319 318 318 317 315 316 317 314 314 313 313 312 311 309 307 307 308 310 311 310 311 312 312 312 312 311 311 313 316 316 316 315 315 317 317 319 316 315 316 320 323 322 322 323 322 321 320 322 322 322 320 318 319 320 320 321 314 309 308 309 314 316 319 321 324 326 325 323 322 323 323 325 327 328 329 329 328 327
323 323 323 323 322 321 320 319 319 318 316 315 315 316 314 313 312 311 312 310 311 311 310 310 310 313 311 310 310 310 310 311 311 311 313 315 314 314 314 315 315 316 318 315 314 315 318 319 317 316 318 317 317 319 320 322 318 317 319 316 318 320 320 317 313 312 308 308 312 316 316 317 322 323 324 324 324 323 324 326 328 329 329 330 329
323 323 324 324 323 321 320 319 318 317 314 315 314 314 315 313 313 312 311 311 311 313 312 312 311 310 309 308 309 308 309 309 310 311 311 313 315 312 312 313 313 314 316 314 313 313 312 311 311 312 312 312 314 315 318 319 317 317 318 317 318 317 316 314 314 313 309 307 308 309 310 312 313 314 316 320 322 323 325 326 328 329 328 328 329
323 324 324 324 323 321 319 318 317 315 314 313 313 312 313 314 313 312 312 311 312 310 310 309 309 307 307 306 307 308 308 308 309 309 310 310 311 312 312 312 312 314 314 311 311 311 310 310 308 309 309 310 310 312 311 308 310 314 317 317 317 316 310 307 307 310 310 309 308 307 307 303 304 307 310 316 320 321 323 324 324 326 326 326 327
322 323 323 324 323 321 318 317 316 315 314 312 311 312 312 313 313 313 313 313 312 312 312 309 308 307 306 306 306 306 307 307 308 309 310 311 312 313 311 311 312 316 313 311 309 309 307 308 308 308 308 307 307 307 308 307 308 308 310 313 313 312 307 305 306 306 305 303 302 303 303 304 305 303 306 309 310 309 312 321 324 322 323 324 326
Wind_Speed
4 8 6 9 11 12 12 13 14 14 15 14 14 16 17 17 17 18 20 21 20 19 19 20 20 20 20 19 18 18 18 18 17 17 17 16 16 16 16 17 17 16 15 16 17 17 16 15 15 14 13 12 14 14 14 16 16 15 15 15 16 15 14 15 15 16 16 16 16 15 14 14 15 15 14 15 15 15 15 15 14 9 6 11 15
7 5 5 8 12 12 13 14 14 14 15 14 14 15 18 17 16 17 17 19 19 19 18 19 19 19 20 18 18 18 18 18 17 17 17 16 15 16 16 17 17 16 15 15 15 15 15 15 15 14 14 13 14 14 14 15 16 15 15 16 15 14 14 13 14 15 15 15 14 14 15 15 15 15 14 15 14 14 14 15 15 5 5 14 14
8 5 4 9 13 13 12 14 15 14 14 13 14 15 16 17 16 16 17 17 18 19 18 18 18 19 19 18 18 17 17 17 18 17 17 16 15 15 15 16 16 16 16 16 15 15 15 15 14 14 14 13 13 14 15 15 16 16 15 15 15 14 13 13 13 13 14 14 14 13 15 15 14 14 14 14 14 13 14 15 14 12 9 14 13
10 5 4 8 14 11 11 13 14 14 13 12 13 15 16 16 16 16 15 16 16 17 18 18 17 16 17 17 17 16 16 17 17 16 16 15 15 15 15 15 16 16 16 16 15 15 15 14 15 14 13 14 14 14 15 15 16 15 15 14 14 14 13 13 12 12 13 13 12 8 4 5 9 14 14 14 14 14 14 14 14 15 15 14 14
10 6 4 5 7 9 11 12 12 14 14 12 13 14 15 16 16 16 16 15 15 15 16 17 17 16 16 16 16 17 16 16 16 16 15 15 15 15 14 14 16 16 16 15 15 15 14 14 13 13 13 13 14 14 15 15 15 15 14 13 13 12 12 12 12 12 11 11 10 6 3 3 4 12 14 14 14 14 13 14 14 14 14 14 14
10 8 7 7 7 8 10 11 12 13 13 12 13 14 14 15 16 16 16 15 15 15 16 16 17 16 17 16 16 16 15 15 15 14 13 14 14 13 13 14 15 16 16 16 15 14 13 13 13 13 12 12 13 14 15 15 14 15 13 13 13 12 12 11 10 11 11 9 7 3 3 4 4 6 13 13 13 11 13 13 14 13 13 14 13
11 9 12 11 8 8 10 10 12 12 12 12 12 13 14 14 14 15 16 16 15 16 16 16 15 15 15 15 16 15 14 14 14 14 14 14 14 14 12 13 14 14 14 14 14 14 13 12 11 12 12 12 13 14 14 14 13 13 12 11 12 13 13 12 10 9 8 4 3 3 3 3 3 2 14 13 13 13 12 12 12 13 14 13 14
7 5 6 10 12 12 13 12 12 12 13 12 11 12 13 13 13 14 15 15 15 15 15 15 15 15 14 14 14 14 14 14 14 13 13 13 14 13 10 12 12 12 13 13 13 13 13 11 11 11 12 12 12 13 14 13 12 11 11 10 9 9 5 5 8 8 6 2 2 2 3 2 3 3 11 13 13 12 13 13 11 12 13 13 13
5 4 4 6 11 20 16 13 14 14 13 12 11 12 12 12 13 14 14 15 15 15 15 14 15 14 14 14 14 14 13 13 14 14 13 12 12 12 10 10 11 10 10 10 12 12 12 11 10 10 12 13 12 12 13 12 11 9 9 9 7 6 4 2 2 4 3 1 1 2 2 3 3 4 10 11 11 12 12 10 11 12 12 12 12
6 3 4 3 6 16 15 14 13 14 14 14 12 12 13 12 12 13 14 15 15 15 14 14 14 14 14 14 14 14 14 13 13 13 12 11 10 9 9 9 10 11 11 12 13 12 12 11 10 10 11 12 12 12 11 11 10 9 8 7 7 5 4 3 0 3 2 2 2 1 1 3 3 4 9 11 11 12 11 10 8 8 10 11 12
9 7 6 5 7 14 15 14 14 15 15 15 13 13 13 12 12 12 14 14 14 14 14 13 14 14 14 13 14 14 14 13 13 13 13 12 10 9 10 10 9 9 10 11 12 12 11 11 9 8 10 10 11 10 10 9 9 8 8 7 6 4 2 4 1 2 2 3 2 0 2 5 3 3 11 12 12 12 12 11 11 10 11 13 14
9 9 7 7 11 11 14 15 14 13 15 15 14 14 14 13 12 12 13 13 14 14 13 13 13 13 14 13 14 14 14 13 12 12 11 10 10 9 9 9 9 9 10 11 12 11 11 10 9 6 6 8 9 10 9 8 8 8 7 6 4 2 2 2 4 5 4 3 2 0 2 2 3 6 12 12 12 11 11 11 11 11 11 11 12
9 8 7 7 7 11 11 12 13 13 14 14 13 14 13 13 13 13 13 11 11 12 13 13 12 12 12 13 13 13 13 12 12 11 11 10 9 9 9 10 10 11 11 12 12 12 11 10 8 6 5 5 7 8 9 9 9 9 8 8 6 5 4 7 5 6 4 3 2 3 2 1 2 10 10 11 10 10 10 11 11 11 12 11 12
11 9 8 7 8 13 10 10 10 12 13 13 12 12 12 12 12 13 12 11 11 11 11 11 11 12 12 13 13 13 12 11 11 11 11 10 9 9 9 9 9 10 12 13 12 12 11 10 8 6 5 5 6 7 8 8 8 8 8 8 8 7 6 5 5 4 4 3 3 3 2 1 3 9 11 12 10 10 10 10 10 11 11 12 12
11 11 8 6 5 9 14 9 9 11 11 11 10 10 11 11 11 11 11 12 12 11 11 12 12 12 12 12 12 12 12 11 11 11 10 9 9 9 9 10 9 10 10 11 11 11 11 9 8 6 5 5 6 6 7 8 8 8 8 7 7 6 6 3 3 3 4 3 2 2 2 2 7 9 10 11 10 10 10 9 10 10 10 11 12
11 10 11 8 4 8 7 11 12 11 11 11 11 11 11 11 11 12 11 11 11 11 11 11 11 11 10 10 10 10 11 10 10 9 9 9 9 9 10 10 10 9 10 10 10 10 10 9 7 6 5 5 5 5 5 7 8 7 7 6 5 5 7 5 4 3 3 3 2 2 2 2 8 8 10 11 10 9 9 9 9 9 10 9 10
8 8 11 10 5 5 7 7 10 13 10 10 10 11 11 11 11 11 11 11 11 11 11 11 11 10 10 10 9 8 9 9 9 8 8 8 8 9 9 9 10 9 9 9 9 9 9 8 7 5 5 4 5 5 5 6 7 7 6 5 5 4 9 8 5 4 4 3 2 2 2 3 7 9 10 11 11 9 9 10 9 8 9 10 10
7 8 9 10 7 6 6 6 7 8 7 9 10 11 11 11 10 10 10 10 10 11 10 10 10 10 11 10 9 9 8 8 7 7 7 7 7 7 7 8 9 9 8 9 9 9 8 7 6 5 5 4 4 5 5 6 6 6 5 4 4 5 11 11 5 4 4 3 2 1 2 4 8 9 10 11 11 10 9 9 9 9 8 8 8
5 5 5 7 8 8 6 6 5 5 5 4 4 8 12 11 10 10 10 10 10 11 11 11 11 10 10 10 10 9 8 8 7 6 6 7 8 7 6 7 8 8 8 8 8 8 7 6 5 4 4 4 4 4 5 6 7 7 6 5 6 7 12 7 5 4 3 3 2 1 1 5 6 9 10 10 10 10 8 8 8 8 8 7 7
4 6 6 6 7 8 6 5 5 5 4 4 4 5 10 12 11 10 10 10 12 12 11 11 12 11 11 10 10 7 7 6 8 5 7 7 6 4 7 7 8 8 8 8 8 7 6 5 4 3 2 2 3 5 6 6 7 7 6 7 7 7 6 5 4 4 4 4 2 2 3 6 8 9 10 10 10 10 8 7 7 8 7 7 6
4 3 2 6 8 10 10 7 6 7 5 5 4 5 8 11 10 11 12 12 12 12 12 12 11 10 9 8 7 4 3 3 4 3 7 3 5 6 8 8 8 8 8 8 7 7 6 5 4 3 1 2 3 4 5 6 7 7 6 7 5 4 3 5 4 4 3 3 2 2 4 7 9 9 9 10 10 10 10 8 8 7 7 6 7
6 6 4 6 6 5 7 8 7 7 6 5 4 4 5 8 5 5 6 8 10 10 8 5 7 4 9 6 3 3 3 3 3 5 2 3 4 7 8 8 8 9 8 8 8 7 7 6 4 2 0 1 3 2 3 5 6 7 6 6 3 2 1 3 4 4 3 3 3 3 6 7 8 9 9 9 9 10 9 7 7 7 7 6 6
7 7 7 7 6 6 6 7 9 7 7 5 4 4 5 4 4 4 4 6 7 6 4 5 4 4 3 3 3 2 3 3 2 4 3 4 3 7 8 8 8 7 9 8 8 7 6 6 5 3 1 1 2 2 3 3 3 6 4 2 1 0 0 3 3 4 4 3 3 5 7 7 8 8 9 9 9 9 8 7 7 7 7 6 6
8 7 8 7 8 7 7 8 9 7 7 6 5 4 4 4 4 4 4 4 5 4 5 5 4 3 3 3 3 2 2 3 6 9 7 3 1 6 7 8 8 9 9 6 7 6 7 6 6 4 2 2 2 3 3 4 3 2 2 1 1 0 2 4 5 4 4 3 4 7 9 8 8 9 9 9 9 9 8 7 6 6 7 6 6
7 6 7 8 8 8 7 7 7 6 6 6 6 5 4 4 4 4 4 4 5 4 4 4 4 4 3 3 2 2 2 1 1 2 3 2 1 1 2 1 2 2 4 3 3 2 3 2 1 2 1 0 2 2 3 4 3 3 2 1 0 1 1 4 4 4 4 3 4 8 10 9 9 9 10 10 10 9 8 7 7 6 6 6 6
5 7 9 9 9 9 9 7 6 6 6 5 5 6 6 4 4 4 4 4 4 4 4 4 4 3 3 3 3 3 1 1 2 3 3 2 2 2 2 2 2 3 2 3 2 2 1 2 2 2 1 0 0 2 1 1 3 3 2 1 1 2 1 4 4 4 4 3 4 10 9 9 9 10 10 10 9 9 8 8 7 7 6 5 6
8 9 8 7 8 8 7 7 7 6 6 6 5 5 5 4 4 4 5 4 4 5 4 4 3 3 3 3 4 3 2 1 3 3 3 2 2 1 2 1 3 3 3 4 3 2 2 2 1 1 0 0 1 2 3 3 2 2 2 1 1 2 1 3 5 5 5 5 5 11 9 8 9 10 10 9 9 9 8 8 7 7 6 6 6
8 8 7 7 8 9 8 9 7 8 7 7 6 5 5 5 6 6 4 5 5 4 4 4 3 4 3 3 2 3 3 2 2 3 3 2 2 1 1 2 2 2 2 3 3 2 2 1 1 0 0 0 1 1 2 3 3 2 3 0 1 2 3 4 4 5 5 5 4 9 10 8 9 9 10 10 10 9 8 8 8 7 7 7 6
8 8 7 8 9 9 9 9 8 8 7 7 6 5 5 4 4 4 4 5 4 4 4 4 4 4 3 3 3 3 2 2 2 2 3 2 2 2 2 2 2 2 2 2 2 3 2 1 1 0 0 0 0 2 3 3 4 3 2 1 1 2 3 3 3 4 4 4 5 6 10 9 9 9 11 10 10 9 8 8 8 8 8 7 7
6 6 7 8 8 8 10 9 9 9 8 7 5 5 5 5 4 4 5 5 4 4 4 4 4 4 4 3 3 3 3 4 3 2 4 3 2 2 2 2 2 1 1 3 2 2 2 1 0 0 0 1 1 2 2 3 4 3 1 1 0 2 3 5 4 5 4 4 5 5 10 9 10 9 10 11 11 10 9 9 9 8 8 8 8
4 8 7 6 7 9 10 10 9 8 7 6 6 5 5 5 5 5 5 4 4 5 4 4 3 2 2 2 2 2 3 3 3 3 2 3 3 2 2 1 1 0 0 1 0 1 1 1 1 1 1 1 2 2 2 3 3 1 1 2 2 3 4 2 2 3 5 5 5 4 6 10 9 10 9 10 10 11 11 10 10 9 8 9 9
4 7 7 3 4 6 6 7 7 7 6 6 6 6 6 5 5 4 4 4 4 3 3 3 4 2 2 2 2 2 2 3 3 3 3 3 3 3 1 2 2 1 1 1 1 0 0 0 0 1 2 1 2 2 2 2 3 3 0 2 1 3 4 5 3 3 3 4 4 3 3 4 8 9 9 8 8 9 11 11 11 10 10 10 9
9 8 3 3 4 4 8 6 7 6 6 7 6 5 5 4 3 3 4 4 3 3 3 3 3 2 2 1 2 1 2 3 3 4 4 4 4 3 2 2 1 2 2 2 2 1 0 0 1 0 0 1 1 2 2 4 4 3 3 3 2 2 3 4 5 4 2 1 1 1 2 2 3 7 8 7 7 7 8 10 11 11 11 10 10
3 4 3 4 4 3 6 6 6 7 5 5 5 5 4 3 2 2 3 4 4 3 3 3 3 3 3 2 2 2 4 3 4 3 4 4 4 4 3 3 3 2 2 1 1 1 0 1 2 1 1 2 2 2 3 4 4 3 4 2 3 2 4 4 4 4 4 3 2 1 1 1 2 3 3 7 8 7 7 7 10 10 10 9 9
1 2 4 4 3 3 5 6 6 5 5 5 5 5 3 4 3 3 4 4 4 4 3 2 3 2 3 3 2 2 2 2 1 1 1 3 4 3 3 4 3 2 2 2 2 2 2 3 2 2 2 3 3 2 2 3 3 4 3 3 4 4 3 2 3 4 4 4 4 3 2 2 2 2 2 2 5 8 7 6 7 9 10 9 9
3 4 4 5 4 3 5 6 6 6 5 5 4 4 4 3 3 3 3 3 3 3 3 3 3 3 2 2 2 2 1 2 3 3 0 0 1 0 2 1 2 3 3 2 1 2 1 1 1 2 3 2 3 3 3 3 3 3 3 3 4 4 4 4 1 3 2 3 4 4 4 3 3 2 3 3 4 3 7 7 6 7 8 10 10
4 5 7 6 4 4 5 7 7 7 5 5 4 4 4 3 3 3 3 3 2 2 2 4 4 3 2 2 2 2 2 2 2 3 1 2 4 5 2 5 1 2 2 2 2 1 1 2 2 1 2 3 4 3 2 2 3 2 2 3 3 3 4 3 3 2 2 3 3 3 3 4 3 5 4 5 3 2 4 7 7 6 7 10 10
3 4 5 7 7 5 6 5 4 4 5 5 5 4 4 4 4 4 3 3 2 2 2 3 4 4 3 2 1 1 1 1 2 3 3 3 2 1 2 2 3 1 2 2 2 2 2 2 3 3 1 3 3 3 1 2 2 2 2 2 2 3 2 3 3 3 4 2 1 4 5 4 4 5 4 4 4 3 2 3 5 7 6 8 8
6 7 7 5 5 5 5 5 5 5 5 5 5 5 5 5 4 4 3 3 3 2 2 3 4 4 3 3 3 2 2 2 2 3 3 4 3 1 0 2 0 0 4 3 2 2 2 2 4 3 3 3 4 2 3 3 2 1 1 1 1 2 1 2 3 4 3 2 1 1 2 5 5 5 4 3 3 4 3 3 2 3 3 4 6
1 4 8 7 7 6 5 5 5 6 6 5 5 5 5 5 6 4 4 2 2 3 2 1 2 3 3 3 4 4 3 3 3 3 3 3 3 2 2 2 1 1 4 1 1 1 2 2 3 5 4 3 3 2 2 3 2 1 0 1 0 1 2 1 2 3 4 4 4 2 1 3 4 4 5 4 4 4 4 4 4 4 3 4 5
1 4 7 8 10 10 10 8 6 7 8 7 6 6 5 4 2 3 4 1 3 2 3 1 1 2 2 3 3 3 3 2 3 4 4 3 3 3 4 2 1 2 3 3 3 2 2 3 3 2 3 2 1 1 1 2 3 0 3 1 1 1 2 3 2 3 3 5 5 5 2 2 2 3 4 4 4 4 5 5 5 5 5 5 5
4 5 9 9 9 9 10 9 7 7 7 7 8 6 5 6 5 4 3 2 2 3 2 2 2 2 2 1 1 1 1 1 1 2 2 2 2 3 3 2 2 1 1 1 1 2 2 1 2 2 2 2 2 1 1 2 1 2 1 1 2 2 2 4 5 2 2 1 3 4 5 1 2 1 1 4 3 3 4 5 4 5 5 6 5
5 6 7 8 8 8 8 8 7 7 6 6 7 6 3 3 5 4 5 3 2 1 2 2 2 3 3 3 2 2 2 1 2 3 2 2 2 2 2 1 2 1 2 1 0 1 2 3 2 4 2 2 1 1 1 1 2 2 1 1 1 1 1 2 1 1 2 2 2 1 2 5 3 2 3 2 1 1 2 3 4 5 5 6 5
5 4 5 8 7 7 7 8 7 6 6 5 5 4 6 6 6 6 4 4 3 2 3 3 3 4 5 4 4 3 4 3 2 3 2 3 3 3 2 2 2 1 2 2 2 1 1 1 1 2 4 2 1 0 0 1 2 3 0 0 1 1 1 0 0 1 1 2 3 2 0 5 3 2 4 5 4 3 2 1 3 3 4 4 4
5 6 7 8 6 9 9 9 8 7 6 6 7 7 7 7 6 5 5 6 4 3 4 4 3 2 3 5 3 3 4 4 3 3 4 4 3 4 4 3 3 2 3 3 2 3 2 1 2 2 2 3 2 1 0 1 2 1 4 3 2 1 1 1 1 1 1 1 2 4 4 4 1 2 2 2 1 2 3 4 3 2 2 3 4
7 7 7 8 8 8 8 7 6 6 7 7 8 8 7 8 6 6 4 4 4 3 3 4 2 4 4 1 3 3 4 4 3 3 4 4 4 3 3 4 3 3 2 2 2 2 1 1 2 2 1 1 2 2 1 1 1 2 2 1 1 2 1 1 0 1 2 1 1 1 3 2 0 1 1 2 1 4 5 5 4 4 4 2 4
8 6 6 7 8 9 8 8 8 7 7 7 8 8 7 6 7 7 6 6 6 1 0 0 3 1 2 4 3 3 3 5 4 4 4 4 5 4 4 4 4 4 3 4 3 2 2 1 1 2 2 2 2 2 3 2 2 1 2 2 2 1 3 1 1 1 1 1 1 1 2 2 1 1 1 1 1 3 1 3 4 3 2 2 4
9 7 7 7 10 10 9 8 6 7 6 7 6 8 8 6 5 4 4 5 5 5 3 2 0 1 4 3 3 3 3 3 5 4 4 5 6 5 5 5 5 4 4 4 3 2 4 3 2 2 2 2 3 4 3 3 2 1 1 1 1 1 1 0 1 1 2 2 1 3 0 2 0 1 2 2 2 2 3 4 4 3 3 2 2
7 9 8 9 8 7 7 6 6 6 6 6 7 5 7 7 7 6 4 1 3 3 3 2 2 1 4 3 4 3 3 3 3 5 4 5 5 6 5 5 5 4 4 5 3 3 3 3 3 3 3 2 2 2 3 2 1 2 2 2 2 2 1 1 2 2 1 1 0 1 3 4 2 3 4 2 1 1 2 3 2 1 1 1 1
9 8 7 7 6 5 5 5 5 5 5 5 5 5 5 7 7 6 7 4 2 2 3 4 2 2 4 3 3 3 3 4 4 4 4 4 5 5 5 6 5 5 5 5 4 5 4 4 3 3 3 4 2 3 2 1 1 3 2 3 3 1 2 3 3 3 2 2 2 1 1 3 6 5 5 7 5 2 0 2 2 2 0 1 1
6 7 8 8 7 6 4 4 5 6 5 4 4 7 6 7 8 8 8 7 4 4 5 3 2 2 3 1 2 2 2 3 4 4 4 4 4 4 5 5 4 5 5 6 5 5 4 4 4 5 5 5 4 4 5 4 3 4 3 3 4 2 1 2 1 2 2 1 2 4 2 2 1 4 6 6 8 8 8 7 4 2 1 1 1
Wind_Direction
139 134 140 139 143 141 139 135 130 126 128 126 125 120 118 117 114 111 112 112 111 109 109 109 109 110 110 111 113 116 117 117 117 115 114 112 112 111 110 107 105 102 103 105 105 102 99 100 101 98 100 102 105 105 104 103 102 101 101 97 92 94 95 95 94 86 85 82 85 88 90 88 85 88 87 84 85 83 81 78 77 72 68 71 68
134 127 132 136 139 139 141 139 133 130 130 129 126 122 118 116 114 110 108 109 110 110 110 110 111 113 116 117 119 120 120 120 119 116 114 115 113 112 109 108 106 105 106 105 104 102 102 102 101 101 101 103 103 104 106 106 105 107 105 101 100 95 93 94 94 91 90 90 87 84 84 86 89 89 90 89 86 84 83 82 78 70 68 70 67
106 108 121 134 136 138 139 139 135 132 130 128 125 121 117 115 113 109 108 107 108 110 111 112 113 116 118 119 120 120 120 118 117 116 115 114 112 111 110 109 107 109 108 107 105 106 108 107 106 108 106 104 104 107 108 107 106 104 103 102 98 96 96 94 94 98 96 94 91 91 92 92 92 90 89 88 86 85 82 80 80 78 81 76 69
112 99 101 131 133 132 135 136 133 129 126 125 123 120 117 116 115 112 109 106 106 109 112 113 115 114 116 118 119 118 117 116 115 114 113 112 111 110 112 111 112 111 111 110 111 110 107 107 107 104 105 108 109 108 109 109 107 106 106 101 100 100 99 98 93 92 92 89 83 74 71 74 87 93 93 92 91 89 89 87 85 82 81 81 79
107 104 95 112 120 131 133 129 130 129 127 126 125 122 118 118 116 115 112 107 106 107 110 114 117 117 117 117 116 115 115 114 113 113 112 111 110 112 115 116 114 115 114 110 107 104 104 104 104 106 108 108 110 111 111 111 108 108 104 103 105 103 101 96 94 92 92 93 94 86 75 81 99 96 94 93 89 85 86 86 83 80 76 77 78
120 117 106 101 118 130 128 130 131 129 131 129 127 124 122 121 120 117 114 112 110 111 112 115 116 117 118 117 116 114 113 112 113 113 111 111 114 118 119 120 117 117 116 114 112 108 106 103 105 107 108 109 110 114 114 109 105 107 108 111 111 110 105 96 93 95 96 90 76 60 60 75 75 87 101 100 95 92 88 86 83 81 81 78 74
123 129 129 126 126 126 131 132 132 129 130 129 126 126 126 124 122 119 118 115 114 113 114 115 118 118 118 118 118 116 113 113 112 111 113 114 110 114 127 121 118 119 117 115 112 110 108 109 108 106 109 113 119 116 114 112 109 109 107 114 117 117 112 91 88 98 89 61 56 64 71 81 86 117 90 95 98 96 91 87 88 85 77 76 76
64 63 103 128 131 138 133 135 130 131 131 130 130 131 130 127 122 118 117 116 114 114 115 116 118 120 119 119 118 117 116 115 115 115 115 113 118 121 123 122 119 116 118 118 115 112 111 112 112 113 112 114 118 117 109 105 103 100 105 113 118 123 116 36 87 102 99 62 52 53 45 40 70 92 103 99 98 95 91 91 87 84 85 82 74
67 96 101 119 132 136 136 140 140 141 136 136 137 137 133 128 123 120 118 117 116 117 118 119 121 121 120 119 118 118 118 117 117 119 119 120 125 129 134 124 120 117 115 114 115 115 114 111 110 110 116 114 113 109 104 100 99 95 98 108 105 89 81 22 72 77 86 83 67 59 67 69 47 75 100 98 98 96 90 85 86 87 90 81 76
118 91 92 78 125 128 132 139 144 143 142 141 142 141 136 129 125 122 120 119 119 120 122 122 122 121 119 118 118 117 117 118 120 123 121 126 131 136 133 122 120 118 113 112 114 115 114 111 113 113 113 117 119 116 111 109 103 99 98 93 90 88 70 284 320 73 90 115 87 63 64 82 60 95 106 101 105 107 109 110 105 93 85 94 92
125 111 93 107 135 132 133 139 145 146 146 143 145 143 138 133 129 124 122 122 124 125 126 126 125 124 123 122 120 116 115 116 117 117 121 123 125 124 124 122 120 125 121 123 123 122 120 115 112 113 117 116 114 114 113 111 109 101 99 101 100 104 195 256 240 117 136 127 117 208 122 86 82 109 116 111 108 109 106 101 93 95 94 86 84
114 112 111 122 128 125 131 140 145 147 145 143 145 145 141 136 132 129 126 125 127 129 130 128 127 126 125 121 117 117 118 118 116 116 118 121 125 126 126 121 112 115 126 125 124 122 117 115 117 116 117 120 121 115 111 98 93 86 83 81 77 72 267 208 117 143 144 136 145 158 62 72 120 117 114 117 113 109 108 107 106 97 93 91 85
108 103 101 110 119 127 130 139 145 147 146 146 147 147 143 139 135 133 131 130 130 129 129 126 124 123 123 121 119 117 118 119 120 121 122 127 128 129 123 119 114 109 116 120 121 120 120 122 124 128 122 109 102 102 99 86 79 75 69 62 50 24 35 130 127 136 136 136 122 103 94 103 131 124 121 117 119 111 110 108 104 103 89 90 89
114 111 113 115 122 130 127 136 142 145 146 147 148 148 145 140 138 136 133 130 129 127 123 121 121 122 122 122 122 121 120 122 124 126 128 129 130 126 126 123 122 123 124 128 125 124 124 126 130 133 130 105 88 89 88 83 77 73 72 66 56 40 46 103 113 120 122 119 117 113 115 125 115 123 124 118 119 120 113 110 111 107 101 94 90
120 119 109 97 105 130 137 139 147 146 146 145 145 148 144 138 134 132 130 129 129 126 124 123 123 125 125 124 122 122 124 127 128 129 130 132 130 128 130 128 127 127 127 128 130 128 130 131 132 134 124 101 94 87 86 83 83 80 80 77 67 52 72 87 103 109 113 116 121 121 137 135 128 125 122 122 126 122 119 114 111 116 108 97 93
124 121 107 108 140 130 123 153 151 150 145 145 148 147 142 138 136 134 133 132 132 130 126 124 124 124 122 119 121 125 127 126 126 128 131 132 130 131 131 135 133 135 132 133 135 135 134 132 132 130 123 107 95 84 88 90 91 93 92 89 79 78 110 125 115 105 113 117 120 125 156 146 140 137 127 120 112 110 116 111 112 109 103 108 103
106 112 119 124 132 115 133 153 153 148 142 143 147 146 142 140 139 135 134 133 133 130 127 125 122 119 119 120 119 118 122 125 127 130 129 130 131 132 137 139 142 142 139 137 136 136 132 133 131 127 115 95 76 66 65 73 85 94 94 90 87 87 133 134 126 129 131 142 142 148 191 176 145 136 131 128 127 126 121 123 117 108 112 110 103
108 121 122 125 117 113 133 142 145 136 140 143 147 147 141 139 135 134 134 133 130 126 123 120 119 121 122 121 118 121 126 130 132 132 132 132 128 133 138 146 146 146 141 136 135 133 133 134 135 130 113 87 75 62 60 62 64 70 74 77 71 92 139 132 130 137 138 145 125 180 208 185 148 142 136 130 128 128 129 124 121 119 116 106 105
115 109 103 119 122 124 128 130 130 131 137 139 151 149 139 136 132 134 134 133 127 128 127 125 128 125 126 126 129 130 136 137 137 137 129 132 138 135 141 146 149 147 141 138 136 137 137 136 137 127 113 93 66 59 51 51 54 56 54 52 49 94 126 118 128 137 137 125 155 154 227 172 149 147 141 137 133 129 122 122 124 121 111 108 108
103 107 119 112 124 118 122 132 138 139 135 148 155 148 142 137 134 135 137 136 136 132 128 132 134 133 135 137 138 140 141 140 143 141 144 142 136 135 151 149 150 150 147 144 143 138 138 137 128 121 99 87 65 55 47 43 49 52 54 49 38 78 110 120 131 133 131 144 148 172 216 172 162 153 146 141 135 130 123 115 116 117 122 123 118
102 87 108 130 141 143 145 150 148 144 146 152 146 138 148 139 139 141 144 140 137 133 134 136 138 140 139 133 118 107 117 123 120 121 145 128 149 156 158 154 158 157 155 152 145 145 145 139 131 130 100 43 39 44 36 33 39 42 57 64 45 39 113 133 134 134 138 152 140 188 216 171 166 159 150 146 141 134 133 139 135 130 122 120 121
146 138 137 130 132 137 142 146 145 149 152 146 143 143 145 141 140 143 143 144 141 138 132 138 131 119 136 120 123 127 118 115 134 136 117 151 155 165 163 166 165 165 161 161 158 157 152 145 139 132 139 15 18 54 35 22 30 44 59 74 47 22 46 145 136 141 143 149 142 205 201 176 175 164 155 149 146 141 138 144 137 131 129 133 123
156 151 146 137 141 139 148 154 159 155 148 142 141 142 130 134 139 132 136 140 143 122 115 114 88 107 104 120 127 123 128 135 132 145 154 156 170 170 169 166 164 173 168 169 165 164 162 151 154 152 124 8 31 43 34 20 13 50 44 67 87 72 39 142 136 146 152 154 156 201 189 189 184 169 160 155 149 142 146 155 145 139 139 139 131
161 161 151 152 154 156 162 165 165 159 151 146 138 131 135 130 130 123 117 106 96 104 103 114 112 121 119 107 113 135 131 153 172 173 170 142 181 176 169 169 169 174 174 165 173 173 174 171 167 154 90 33 8 27 17 355 2 46 67 83 128 223 137 158 155 158 153 169 174 202 191 192 185 174 167 163 154 154 159 158 148 148 148 144 143
162 155 150 159 160 162 163 167 166 158 147 148 143 139 132 129 126 125 121 113 112 107 113 119 134 129 121 113 118 116 118 160 35 70 98 105 72 72 125 122 139 158 148 142 158 200 151 159 110 80 115 79 0 352 14 346 351 356 57 35 82 281 116 156 158 154 164 178 182 200 193 193 184 177 171 168 164 163 170 162 156 157 149 150 148
155 160 171 161 168 172 170 162 156 153 151 144 139 149 144 148 140 137 125 112 119 119 122 129 136 132 127 133 128 114 110 87 72 77 75 82 104 116 123 130 126 138 113 143 157 148 158 165 163 136 160 78 21 328 324 325 321 328 22 81 111 276 158 160 161 160 173 179 194 201 193 192 185 178 174 174 169 172 177 166 164 164 161 162 155
177 175 169 169 168 169 162 150 149 147 147 145 144 146 157 161 149 146 139 131 128 128 127 126 125 132 135 146 141 153 147 100 98 92 89 95 129 125 137 142 140 147 153 142 165 178 172 179 164 182 57 42 358 336 317 299 270 298 316 92 162 237 182 171 173 169 178 186 196 202 194 192 184 179 180 179 178 179 184 174 175 170 169 170 171
174 172 167 165 169 168 162 160 158 158 154 154 152 152 161 163 167 166 140 151 140 139 134 137 134 136 149 161 150 154 158 122 109 116 117 112 156 149 123 132 137 159 159 153 162 178 180 188 183 225 85 55 1 327 309 298 295 258 282 133 191 216 195 191 179 177 179 183 194 202 193 192 182 185 183 181 182 184 185 181 183 182 183 179 185
179 173 167 168 176 165 161 165 161 157 155 154 157 154 159 158 167 151 143 163 141 145 145 142 146 154 160 162 155 158 143 115 132 137 120 145 161 151 148 159 155 164 145 186 177 175 195 193 176 191 72 24 346 297 288 297 298 294 258 265 182 208 191 181 182 177 180 182 194 204 194 189 184 190 185 183 184 186 186 183 195 186 190 188 192
182 172 179 180 171 159 163 166 164 162 157 156 154 150 160 163 176 164 158 157 156 150 149 151 160 159 164 170 170 159 161 143 156 146 147 164 174 158 159 167 147 130 152 186 221 178 189 179 105 37 326 254 284 281 319 314 310 298 303 45 87 202 193 176 179 179 185 186 196 207 199 192 189 197 189 186 185 188 185 185 196 196 194 198 196
165 176 197 188 168 164 171 168 165 157 150 146 148 148 157 176 187 171 158 144 152 149 148 147 153 168 169 163 171 177 149 131 152 155 144 158 174 177 184 123 124 133 272 195 257 205 147 188 185 208 234 264 260 308 9 339 310 304 201 169 222 148 166 184 198 177 183 195 195 202 205 196 198 203 192 189 192 192 184 184 190 203 195 203 202
194 219 183 174 175 163 154 158 155 152 146 138 149 153 169 182 183 163 145 121 138 135 142 151 163 163 153 169 180 186 125 121 148 155 149 158 179 192 159 144 187 181 134 224 250 338 139 263 206 212 219 219 279 355 10 16 16 359 254 116 160 161 164 164 184 201 202 194 197 203 204 201 202 200 194 196 207 204 187 191 185 193 199 204 207
181 191 195 152 159 150 150 155 147 140 141 147 148 153 156 166 155 162 117 120 120 133 148 166 146 138 142 160 161 123 87 142 161 165 157 165 178 186 175 158 174 180 181 191 175 132 75 353 291 271 80 63 85 15 1 32 35 12 38 33 62 138 167 168 175 173 204 239 274 244 205 202 215 206 201 203 215 222 207 199 187 193 194 205 205
124 181 165 194 170 182 138 143 144 137 137 133 133 141 149 133 119 101 110 104 121 137 151 144 138 138 142 130 120 111 131 150 159 162 157 162 178 186 177 171 172 167 169 155 132 114 139 203 257 161 136 117 72 37 44 42 16 16 44 30 44 50 155 169 176 171 164 172 178 200 242 243 223 226 214 217 217 223 229 218 198 199 194 202 205
236 187 169 171 191 198 145 140 139 132 134 138 136 133 129 125 116 103 93 107 111 112 92 103 113 131 131 131 115 115 119 127 112 123 140 164 170 181 187 193 162 150 145 145 147 155 182 224 191 142 79 65 83 41 85 78 60 45 23 27 41 30 59 143 165 167 176 173 161 181 197 219 224 248 243 238 234 226 228 229 214 200 198 201 204
195 181 177 168 181 203 142 131 138 140 140 139 127 128 127 109 106 123 87 96 110 120 126 124 123 112 111 102 85 106 89 116 113 81 19 342 302 206 306 259 161 155 155 152 108 124 178 163 128 131 120 56 81 40 37 72 52 51 20 35 36 47 56 51 101 185 175 160 178 177 186 195 205 207 224 226 233 245 236 230 230 212 198 202 204
181 182 174 166 163 167 135 134 154 152 140 123 116 114 104 111 113 95 102 109 121 132 128 122 126 133 125 125 124 144 141 102 91 103 99 36 26 18 324 316 281 147 131 127 96 64 122 124 55 60 128 132 103 96 53 58 61 26 25 43 27 52 61 56 60 47 105 157 188 198 190 199 199 207 208 208 216 234 258 245 237 236 212 200 208
160 175 174 163 166 154 132 144 145 138 129 129 132 120 103 98 89 103 121 103 116 140 130 130 125 109 104 108 106 122 151 120 117 123 131 113 109 216 325 271 287 46 73 85 70 72 50 106 94 37 70 107 97 108 91 58 78 72 35 40 33 40 55 61 59 55 49 56 200 207 202 187 196 217 215 203 197 195 212 267 265 258 249 219 213
154 163 157 156 144 123 125 143 139 129 120 116 108 94 96 86 83 85 81 85 89 91 108 99 107 115 126 144 154 164 165 137 109 122 128 116 125 273 253 239 337 220 45 27 42 50 44 36 115 84 45 79 127 154 155 132 91 57 45 351 59 90 27 36 53 56 34 10 359 298 207 199 196 204 207 198 191 192 199 203 230 252 272 274 235
97 148 139 136 127 119 122 120 126 119 110 109 112 106 104 114 110 86 76 69 68 99 56 115 125 138 164 168 166 170 176 158 137 129 127 131 144 144 201 252 210 125 104 226 285 169 131 118 117 127 113 66 52 115 118 114 69 65 337 316 322 152 126 37 52 44 7 351 358 355 4 197 200 206 196 197 192 194 197 202 208 216 222 230 230
166 163 142 141 146 148 141 143 137 135 138 139 136 137 122 93 70 105 133 157 140 125 102 122 125 162 173 179 176 173 164 145 141 140 142 158 140 164 190 200 135 139 176 211 215 187 186 157 141 96 121 97 59 72 54 94 122 74 346 336 339 334 128 124 78 41 12 336 346 355 2 83 195 197 211 201 197 198 201 202 207 207 215 216 219
179 172 150 151 148 145 141 138 138 144 147 150 148 146 150 158 150 169 145 114 88 90 67 27 37 46 84 107 119 110 108 113 117 112 117 129 149 174 187 186 143 184 182 258 215 160 125 115 116 58 34 121 122 146 229 106 27 158 131 308 335 337 40 79 101 94 123 43 348 354 336 16 124 178 175 190 209 211 213 210 207 210 215 216 216
169 169 152 141 139 135 136 140 146 140 142 142 139 143 120 127 132 152 142 107 17 30 90 54 57 66 38 51 72 98 132 124 141 141 145 185 167 171 207 121 138 151 134 89 16 88 139 174 139 130 82 46 108 192 241 146 152 163 187 97 341 45 342 28 9 130 135 145 153 349 344 315 338 89 126 114 126 240 252 219 223 222 221 221 217
174 160 154 147 144 140 143 143 147 143 141 136 122 100 99 89 83 110 89 109 138 100 82 58 62 62 47 38 47 61 70 85 118 163 169 167 171 162 121 118 143 149 126 140 160 206 164 143 123 120 128 114 130 308 81 55 136 131 52 128 195 115 346 325 342 298 248 162 130 153 69 307 319 348 45 44 30 48 19 343 247 244 242 237 229
178 170 166 161 157 157 156 154 155 152 138 125 119 117 103 83 85 76 88 85 65 57 66 43 27 81 84 51 36 54 86 79 80 112 148 160 128 124 141 149 150 141 144 146 170 201 217 180 152 138 153 153 186 180 66 120 90 91 138 104 19 30 223 243 35 268 321 89 111 149 182 203 307 5 54 86 37 61 41 20 349 309 293 290 269
180 183 174 168 158 161 156 151 150 146 132 131 134 131 132 130 122 113 103 87 100 98 116 132 97 95 97 47 39 55 86 85 84 91 109 118 123 136 131 123 117 105 109 116 121 102 111 106 204 175 141 193 160 124 162 97 131 94 105 119 161 167 177 239 147 161 320 300 269 210 183 236 225 137 117 67 6 16 12 321 305 340 304 282 282
188 180 178 169 165 161 163 160 162 148 134 138 141 131 131 142 148 147 149 153 146 234 231 217 131 99 76 81 65 34 51 96 83 94 103 113 113 109 107 101 101 102 101 93 79 102 104 116 147 161 171 162 132 152 176 169 93 67 93 102 90 107 179 140 161 118 79 317 305 227 183 197 204 198 251 167 234 120 170 270 290 288 272 282 274
178 173 175 174 170 170 165 166 162 143 138 139 144 143 142 141 129 129 139 147 157 161 161 161 348 92 72 46 63 43 34 58 90 81 99 107 109 103 103 102 98 95 100 95 107 101 90 67 85 101 96 122 154 159 153 148 175 180 123 115 78 65 35 54 128 154 156 139 300 317 284 94 191 277 266 223 207 179 184 216 235 253 276 276 275
172 177 181 181 175 167 163 161 143 126 126 138 140 147 141 146 142 136 126 149 145 144 128 77 80 38 72 32 56 40 47 46 63 94 88 102 101 107 102 98 96 96 99 100 91 84 90 96 87 83 95 62 102 139 133 160 144 169 136 84 91 63 53 59 66 73 105 108 305 43 336 333 17 40 351 302 231 208 203 209 208 236 268 294 334
181 179 176 173 172 157 161 151 122 108 119 126 133 135 140 138 137 146 141 150 131 98 102 95 62 45 80 44 51 56 48 60 56 74 89 88 96 99 97 97 100 98 92 95 92 78 70 74 73 97 101 84 43 77 104 113 102 107 118 155 96 33 20 19 26 38 48 61 129 35 13 32 38 353 7 34 52 78 152 211 199 201 132 40 16
184 181 175 175 169 151 136 106 80 72 78 95 135 152 160 158 152 153 150 151 162 152 126 110 82 78 102 69 79 71 60 88 86 70 85 97 91 95 101 99 91 89 86 82 81 89 79 81 73 71 62 72 68 75 72 62 80 75 67 81 112 131 140 100 14 45 100 78 41 9 340 13 28 35 7 15 38 35 35 41 49 75 103 298 277